Terminal Aerodrome Forecast
Issued by NWS Boston, MA

Home | Current Version | Previous Version | Text Only | Print | Product List | Glossary On
Versions: 1 2 3 4 5 6 7 8 9 10 11 12 13 14 15 16 17 18 19 20 21 22 23 24 25 26 27 28 29 30 31 32 33 34 35 36 37 38 39 40 41 42 43 44
000
FTUS41 KBOX 261738
TAFPVD
TAF
KPVD 261738Z 2618/2718 05011KT 2SM -SN OVC025
     FM262200 05013KT 1/2SM SN OVC015
     FM270100 03018G27KT 1/4SM +SN FG OVC008
     FM270500 02022G47KT 1/4SM +SN BLSN OVC003 WS020/03055KT=

USA.gov is the U.S. government's official web portal to all federal, state and local government web resources and services.